Year,Month,Day,Hour,Minute,Value (Times are PST for temperature in C)
2010,04,02,00,00,4.40
2010,04,02,00,01,4.40
2010,04,02,00,02,4.40
2010,04,02,00,03,4.40
2010,04,02,00,04,4.40
2010,04,02,00,05,4.40
2010,04,02,00,06,4.40
2010,04,02,00,07,4.40
2010,04,02,00,08,4.40
2010,04,02,00,09,4.40
2010,04,02,00,10,4.40
2010,04,02,00,11,4.40
2010,04,02,00,12,4.40
2010,04,02,00,13,4.40
2010,04,02,00,14,4.40
2010,04,02,00,15,4.40
2010,04,02,00,16,4.40
2010,04,02,00,17,4.40
2010,04,02,00,18,4.40
2010,04,02,00,19,4.40
2010,04,02,00,20,4.40
2010,04,02,00,21,4.50
2010,04,02,00,22,4.50
2010,04,02,00,23,4.50
2010,04,02,00,24,4.50
2010,04,02,00,25,4.50
2010,04,02,00,26,4.50
2010,04,02,00,27,4.50
2010,04,02,00,28,4.50
2010,04,02,00,29,4.50
2010,04,02,00,30,4.60
2010,04,02,00,31,4.50
2010,04,02,00,32,4.50
2010,04,02,00,33,4.50
2010,04,02,00,34,4.50
2010,04,02,00,35,4.50
2010,04,02,00,36,4.50
2010,04,02,00,37,4.50
2010,04,02,00,38,4.50
2010,04,02,00,39,4.50
2010,04,02,00,40,4.50
2010,04,02,00,41,4.50
2010,04,02,00,42,4.50
2010,04,02,00,43,4.50
2010,04,02,00,44,4.50
2010,04,02,00,45,4.50
2010,04,02,00,46,4.50
2010,04,02,00,47,4.50
2010,04,02,00,48,4.50
2010,04,02,00,49,4.50
2010,04,02,00,50,4.50
2010,04,02,00,51,4.50
2010,04,02,00,52,4.50
2010,04,02,00,53,4.50
2010,04,02,00,54,4.50
2010,04,02,00,55,4.50
2010,04,02,00,56,4.50
2010,04,02,00,57,4.50
2010,04,02,00,58,4.50
2010,04,02,00,59,4.50
2010,04,02,01,00,4.50
2010,04,02,01,01,4.50
2010,04,02,01,02,4.50
2010,04,02,01,03,4.50
2010,04,02,01,04,4.50
2010,04,02,01,05,4.50
2010,04,02,01,06,4.50
2010,04,02,01,07,4.40
2010,04,02,01,08,4.40
2010,04,02,01,09,4.40
2010,04,02,01,10,4.40
2010,04,02,01,11,4.40
2010,04,02,01,12,4.40
2010,04,02,01,13,4.40
2010,04,02,01,14,4.40
2010,04,02,01,15,4.40
2010,04,02,01,16,4.40
2010,04,02,01,17,4.40
2010,04,02,01,18,4.40
2010,04,02,01,19,4.40
2010,04,02,01,20,4.40
2010,04,02,01,21,4.40
2010,04,02,01,22,4.40
2010,04,02,01,23,4.40
2010,04,02,01,24,4.40
2010,04,02,01,25,4.40
2010,04,02,01,26,4.40
2010,04,02,01,27,4.40
2010,04,02,01,28,4.40
2010,04,02,01,29,4.40
2010,04,02,01,30,4.30
2010,04,02,01,31,4.30
2010,04,02,01,32,4.40
2010,04,02,01,33,4.30
2010,04,02,01,34,4.30
2010,04,02,01,35,4.30
2010,04,02,01,36,4.30
2010,04,02,01,37,4.30
2010,04,02,01,38,4.30
2010,04,02,01,39,4.30
2010,04,02,01,40,4.30
2010,04,02,01,41,4.30
2010,04,02,01,42,4.30
2010,04,02,01,43,4.30
2010,04,02,01,44,4.30
2010,04,02,01,45,4.30
2010,04,02,01,46,4.30
2010,04,02,01,47,4.30
2010,04,02,01,48,4.30
2010,04,02,01,49,4.30
2010,04,02,01,50,4.30
2010,04,02,01,51,4.30
2010,04,02,01,52,4.30
2010,04,02,01,53,4.30
2010,04,02,01,54,4.30
2010,04,02,01,55,4.30
2010,04,02,01,56,4.30
2010,04,02,01,57,4.30
2010,04,02,01,58,4.20
2010,04,02,01,59,4.20
2010,04,02,02,00,4.20
2010,04,02,02,01,4.20
2010,04,02,02,02,4.20
2010,04,02,02,03,4.20
2010,04,02,02,04,4.20
2010,04,02,02,05,4.20
2010,04,02,02,06,4.20
2010,04,02,02,07,4.20
2010,04,02,02,08,4.20
2010,04,02,02,09,4.20
2010,04,02,02,10,4.20
2010,04,02,02,11,4.20
2010,04,02,02,12,4.20
2010,04,02,02,13,4.20
2010,04,02,02,14,4.20
2010,04,02,02,15,4.20
2010,04,02,02,16,4.20
2010,04,02,02,17,4.20
2010,04,02,02,18,4.20
2010,04,02,02,19,4.20
2010,04,02,02,20,4.20
2010,04,02,02,21,4.20
2010,04,02,02,22,4.20
2010,04,02,02,23,4.20
2010,04,02,02,24,4.20
2010,04,02,02,25,4.20
2010,04,02,02,26,4.20
2010,04,02,02,27,4.30
2010,04,02,02,28,4.30
2010,04,02,02,29,4.30
2010,04,02,02,30,4.30
2010,04,02,02,31,4.30
2010,04,02,02,32,4.30
2010,04,02,02,33,4.30
2010,04,02,02,34,4.30
2010,04,02,02,35,4.30
2010,04,02,02,36,4.30
2010,04,02,02,37,4.30
2010,04,02,02,38,4.30
2010,04,02,02,39,4.30
2010,04,02,02,40,4.30
2010,04,02,02,41,4.30
2010,04,02,02,42,4.30
2010,04,02,02,43,4.30
2010,04,02,02,44,4.30
2010,04,02,02,45,4.30
2010,04,02,02,46,4.30
2010,04,02,02,47,4.30
2010,04,02,02,48,4.30
2010,04,02,02,49,4.30
2010,04,02,02,50,4.30
2010,04,02,02,51,4.30
2010,04,02,02,52,4.30
2010,04,02,02,53,4.30
2010,04,02,02,54,4.30
2010,04,02,02,55,4.30
2010,04,02,02,56,4.30
2010,04,02,02,57,4.30
2010,04,02,02,58,4.30
2010,04,02,02,59,4.30
2010,04,02,03,00,4.30
2010,04,02,03,01,4.30
2010,04,02,03,02,4.40
2010,04,02,03,03,4.40
2010,04,02,03,04,4.40
2010,04,02,03,05,4.40
2010,04,02,03,06,4.40
2010,04,02,03,07,4.40
2010,04,02,03,08,4.40
2010,04,02,03,09,4.40
2010,04,02,03,10,4.40
2010,04,02,03,11,4.40
2010,04,02,03,12,4.40
2010,04,02,03,13,4.40
2010,04,02,03,14,4.40
2010,04,02,03,15,4.40
2010,04,02,03,16,4.40
2010,04,02,03,17,4.40
2010,04,02,03,18,4.40
2010,04,02,03,19,4.40
2010,04,02,03,20,4.40
2010,04,02,03,21,4.40
2010,04,02,03,22,4.40
2010,04,02,03,23,4.30
2010,04,02,03,24,4.30
2010,04,02,03,25,4.30
2010,04,02,03,26,4.30
2010,04,02,03,27,4.30
2010,04,02,03,28,4.30
2010,04,02,03,29,4.30
2010,04,02,03,30,4.30
2010,04,02,03,31,4.30
2010,04,02,03,32,4.30
2010,04,02,03,33,4.30
2010,04,02,03,34,4.30
2010,04,02,03,35,4.30
2010,04,02,03,36,4.30
2010,04,02,03,37,4.30
2010,04,02,03,38,4.20
2010,04,02,03,39,4.20
2010,04,02,03,40,4.20
2010,04,02,03,41,4.20
2010,04,02,03,42,4.20
2010,04,02,03,43,4.20
2010,04,02,03,44,4.20
2010,04,02,03,45,4.20
2010,04,02,03,46,4.20
2010,04,02,03,47,4.20
2010,04,02,03,48,4.10
2010,04,02,03,49,4.10
2010,04,02,03,50,4.10
2010,04,02,03,51,4.10
2010,04,02,03,52,4.10
2010,04,02,03,53,4.10
2010,04,02,03,54,4.10
2010,04,02,03,55,4.10
2010,04,02,03,56,4.10
2010,04,02,03,57,4.10
2010,04,02,03,58,4.10
2010,04,02,03,59,4.10
2010,04,02,04,00,4.10
2010,04,02,04,01,4.10
2010,04,02,04,02,4.10
2010,04,02,04,03,4.10
2010,04,02,04,04,4.10
2010,04,02,04,05,4.10
2010,04,02,04,06,4.10
2010,04,02,04,07,4.10
2010,04,02,04,08,4.10
2010,04,02,04,09,4.10
2010,04,02,04,10,4.10
2010,04,02,04,11,4.10
2010,04,02,04,12,4.10
2010,04,02,04,13,4.10
2010,04,02,04,14,4.10
2010,04,02,04,15,4.10
2010,04,02,04,16,4.10
2010,04,02,04,17,4.10
2010,04,02,04,18,4.10
2010,04,02,04,19,4.10
2010,04,02,04,20,4.10
2010,04,02,04,21,4.10
2010,04,02,04,22,4.10
2010,04,02,04,23,4.10
2010,04,02,04,24,4.10
2010,04,02,04,25,4.10
2010,04,02,04,26,4.10
2010,04,02,04,27,4.10
2010,04,02,04,28,4.10
2010,04,02,04,29,4.10
2010,04,02,04,30,4.10
2010,04,02,04,31,4.10
2010,04,02,04,32,4.10
2010,04,02,04,33,4.10
2010,04,02,04,34,4.10
2010,04,02,04,35,4.10
2010,04,02,04,36,4.10
2010,04,02,04,37,4.10
2010,04,02,04,38,4.00
2010,04,02,04,39,4.10
2010,04,02,04,40,4.00
2010,04,02,04,41,4.00
2010,04,02,04,42,4.00
2010,04,02,04,43,4.00
2010,04,02,04,44,4.00
2010,04,02,04,45,4.00
2010,04,02,04,46,4.00
2010,04,02,04,47,4.00
2010,04,02,04,48,4.00
2010,04,02,04,49,4.00
2010,04,02,04,50,4.00
2010,04,02,04,51,4.00
2010,04,02,04,52,4.00
2010,04,02,04,53,4.00
2010,04,02,04,54,4.00
2010,04,02,04,55,4.00
2010,04,02,04,56,4.00
2010,04,02,04,57,4.00
2010,04,02,04,58,4.00
2010,04,02,04,59,4.00
2010,04,02,05,00,4.00
2010,04,02,05,01,4.00
2010,04,02,05,02,4.00
2010,04,02,05,03,4.00
2010,04,02,05,04,4.00
2010,04,02,05,05,4.00
2010,04,02,05,06,4.00
2010,04,02,05,07,4.00
2010,04,02,05,08,4.00
2010,04,02,05,09,4.00
2010,04,02,05,10,4.00
2010,04,02,05,11,4.00
2010,04,02,05,12,4.00
2010,04,02,05,13,4.00
2010,04,02,05,14,4.00
2010,04,02,05,15,4.00
2010,04,02,05,16,4.00
2010,04,02,05,17,4.00
2010,04,02,05,18,4.00
2010,04,02,05,19,4.00
2010,04,02,05,20,4.00
2010,04,02,05,21,4.00
2010,04,02,05,22,4.00
2010,04,02,05,23,4.10
2010,04,02,05,24,4.10
2010,04,02,05,25,4.10
2010,04,02,05,26,4.20
2010,04,02,05,27,4.20
2010,04,02,05,28,4.20
2010,04,02,05,29,4.20
2010,04,02,05,30,4.30
2010,04,02,05,31,4.30
2010,04,02,05,32,4.30
2010,04,02,05,33,4.30
2010,04,02,05,34,4.30
2010,04,02,05,35,4.40
2010,04,02,05,36,4.40
2010,04,02,05,37,4.40
2010,04,02,05,38,4.50
2010,04,02,05,39,4.50
2010,04,02,05,40,4.60
2010,04,02,05,41,4.60
2010,04,02,05,42,4.70
2010,04,02,05,43,4.70
2010,04,02,05,44,4.80
2010,04,02,05,45,4.80
2010,04,02,05,46,4.80
2010,04,02,05,47,4.80
2010,04,02,05,48,4.80
2010,04,02,05,49,4.80
2010,04,02,05,50,4.90
2010,04,02,05,51,4.90
2010,04,02,05,52,4.80
2010,04,02,05,53,4.80
2010,04,02,05,54,4.80
2010,04,02,05,55,4.80
2010,04,02,05,56,4.80
2010,04,02,05,57,4.80
2010,04,02,05,58,4.80
2010,04,02,05,59,4.80
2010,04,02,06,00,4.80
2010,04,02,06,01,4.80
2010,04,02,06,02,4.80
2010,04,02,06,03,4.80
2010,04,02,06,04,4.80
2010,04,02,06,05,4.80
2010,04,02,06,06,4.80
2010,04,02,06,07,4.80
2010,04,02,06,08,4.80
2010,04,02,06,09,4.80
2010,04,02,06,10,4.80
2010,04,02,06,11,4.80
2010,04,02,06,12,4.80
2010,04,02,06,13,4.80
2010,04,02,06,14,4.80
2010,04,02,06,15,4.80
2010,04,02,06,16,4.80
2010,04,02,06,17,4.80
2010,04,02,06,18,4.80
2010,04,02,06,19,4.80
2010,04,02,06,20,4.80
2010,04,02,06,21,4.80
2010,04,02,06,22,4.80
2010,04,02,06,23,4.80
2010,04,02,06,24,4.80
2010,04,02,06,25,4.80
2010,04,02,06,26,4.80
2010,04,02,06,27,4.80
2010,04,02,06,28,4.80
2010,04,02,06,29,4.80
2010,04,02,06,30,4.80
2010,04,02,06,31,4.80
2010,04,02,06,32,4.80
2010,04,02,06,33,4.80
2010,04,02,06,34,4.80
2010,04,02,06,35,4.80
2010,04,02,06,36,4.80
2010,04,02,06,37,4.90
2010,04,02,06,38,4.90
2010,04,02,06,39,4.90
2010,04,02,06,40,4.90
2010,04,02,06,41,4.90
2010,04,02,06,42,4.90
2010,04,02,06,43,4.90
2010,04,02,06,44,4.90
2010,04,02,06,45,4.90
2010,04,02,06,46,4.90
2010,04,02,06,47,4.90
2010,04,02,06,48,4.80
2010,04,02,06,49,4.80
2010,04,02,06,50,4.80
2010,04,02,06,51,4.90
2010,04,02,06,52,4.90
2010,04,02,06,53,4.90
2010,04,02,06,54,4.90
2010,04,02,06,55,4.90
2010,04,02,06,56,4.90
2010,04,02,06,57,4.80
2010,04,02,06,58,4.80
2010,04,02,06,59,4.80
2010,04,02,07,00,4.80
2010,04,02,07,01,4.80
2010,04,02,07,02,4.80
2010,04,02,07,03,4.80
2010,04,02,07,04,4.80
2010,04,02,07,05,4.80
2010,04,02,07,06,4.80
2010,04,02,07,07,4.80
2010,04,02,07,08,4.80
2010,04,02,07,09,4.70
2010,04,02,07,10,4.70
2010,04,02,07,11,4.70
2010,04,02,07,12,4.70
2010,04,02,07,13,4.70
2010,04,02,07,14,4.70
2010,04,02,07,15,4.70
2010,04,02,07,16,4.70
2010,04,02,07,17,4.70
2010,04,02,07,18,4.70
2010,04,02,07,19,4.70
2010,04,02,07,20,4.70
2010,04,02,07,21,4.70
2010,04,02,07,22,4.70
2010,04,02,07,23,4.70
2010,04,02,07,24,4.70
2010,04,02,07,25,4.70
2010,04,02,07,26,4.70
2010,04,02,07,27,4.70
2010,04,02,07,28,4.70
2010,04,02,07,29,4.70
2010,04,02,07,30,4.70
2010,04,02,07,31,4.70
2010,04,02,07,32,4.70
2010,04,02,07,33,4.60
2010,04,02,07,34,4.60
2010,04,02,07,35,4.60
2010,04,02,07,36,4.60
2010,04,02,07,37,4.60
2010,04,02,07,38,4.60
2010,04,02,07,39,4.60
2010,04,02,07,40,4.60
2010,04,02,07,41,4.50
2010,04,02,07,42,4.50
2010,04,02,07,43,4.60
2010,04,02,07,44,4.60
2010,04,02,07,45,4.60
2010,04,02,07,46,4.60
2010,04,02,07,47,4.60
2010,04,02,07,48,4.60
2010,04,02,07,49,4.60
2010,04,02,07,50,4.70
2010,04,02,07,51,4.70
2010,04,02,07,52,4.70
2010,04,02,07,53,4.70
2010,04,02,07,54,4.70
2010,04,02,07,55,4.70
2010,04,02,07,56,4.70
2010,04,02,07,57,4.70
2010,04,02,07,58,4.70
2010,04,02,07,59,4.70
2010,04,02,08,00,4.70
2010,04,02,08,01,4.70
2010,04,02,08,02,4.70
2010,04,02,08,03,4.60
2010,04,02,08,04,4.60
2010,04,02,08,05,4.60
2010,04,02,08,06,4.50
2010,04,02,08,07,4.50
2010,04,02,08,08,4.40
2010,04,02,08,09,4.40
2010,04,02,08,10,4.40
2010,04,02,08,11,4.30
2010,04,02,08,12,4.30
2010,04,02,08,13,4.30
2010,04,02,08,14,4.20
2010,04,02,08,15,4.20
2010,04,02,08,16,4.20
2010,04,02,08,17,4.20
2010,04,02,08,18,4.20
2010,04,02,08,19,4.10
2010,04,02,08,20,4.10
2010,04,02,08,21,4.10
2010,04,02,08,22,4.10
2010,04,02,08,23,4.10
2010,04,02,08,24,4.00
2010,04,02,08,25,4.00
2010,04,02,08,26,4.00
2010,04,02,08,27,3.90
2010,04,02,08,28,3.90
2010,04,02,08,29,3.90
2010,04,02,08,30,3.90
2010,04,02,08,31,3.80
2010,04,02,08,32,3.80
2010,04,02,08,33,3.80
2010,04,02,08,34,3.80
2010,04,02,08,35,3.80
2010,04,02,08,36,3.70
2010,04,02,08,37,3.70
2010,04,02,08,38,3.70
2010,04,02,11,04,4.60
2010,04,02,11,05,4.60
2010,04,02,11,06,4.60
2010,04,02,11,07,4.70
2010,04,02,11,08,4.70
2010,04,02,11,09,4.70
2010,04,02,11,10,4.80
2010,04,02,11,11,4.80
2010,04,02,11,12,4.80
2010,04,02,11,13,4.80
2010,04,02,11,14,4.90
2010,04,02,11,15,4.90
2010,04,02,13,46,6.80
2010,04,02,13,47,6.80
2010,04,02,13,48,6.80
2010,04,02,13,49,6.80
2010,04,02,13,50,6.80
2010,04,02,13,51,6.80
2010,04,02,13,52,6.80
2010,04,02,13,53,6.80
2010,04,02,13,54,6.80
2010,04,02,13,55,6.80
2010,04,02,13,56,6.80
2010,04,02,13,57,6.80
2010,04,02,13,58,6.80
2010,04,02,13,59,6.80
2010,04,02,14,00,6.80
2010,04,02,14,01,6.80
2010,04,02,14,02,6.80
2010,04,02,14,03,6.80
2010,04,02,14,04,6.80
2010,04,02,14,05,6.80
2010,04,02,14,06,6.80
2010,04,02,14,07,6.80
2010,04,02,14,08,6.80
2010,04,02,14,09,6.80
2010,04,02,14,10,6.80
2010,04,02,14,11,6.80
2010,04,02,14,12,6.80
2010,04,02,14,13,6.80
2010,04,02,14,14,6.80
2010,04,02,14,15,6.80
2010,04,02,14,16,6.80
2010,04,02,14,17,6.80
2010,04,02,14,18,6.80
2010,04,02,14,19,6.80
2010,04,02,14,20,6.80
2010,04,02,14,21,6.80
2010,04,02,14,22,6.80
2010,04,02,14,23,6.70
2010,04,02,14,24,6.70
2010,04,02,14,25,6.70
2010,04,02,14,26,6.70
2010,04,02,14,27,6.70
2010,04,02,14,28,6.70
2010,04,02,14,29,6.60
2010,04,02,14,30,6.60
2010,04,02,14,31,6.60
2010,04,02,14,32,6.60
2010,04,02,14,33,6.50
2010,04,02,14,34,6.50
2010,04,02,14,35,6.50
2010,04,02,14,36,6.40
2010,04,02,14,37,6.40
2010,04,02,14,38,6.40
2010,04,02,14,39,6.30
2010,04,02,14,40,6.30
2010,04,02,14,41,6.30
2010,04,02,14,42,6.20
2010,04,02,14,43,6.20
2010,04,02,14,44,6.20
2010,04,02,14,45,6.20
2010,04,02,14,46,6.10
2010,04,02,14,47,6.10
2010,04,02,14,48,6.00
2010,04,02,14,49,6.00
2010,04,02,14,50,5.90
2010,04,02,14,51,5.90
2010,04,02,14,52,5.90
2010,04,02,14,53,5.90
2010,04,02,14,54,5.80
2010,04,02,14,55,5.80
2010,04,02,14,56,5.70
2010,04,02,14,57,5.70
2010,04,02,14,58,5.60
2010,04,02,14,59,5.60
2010,04,02,15,00,5.50
2010,04,02,15,01,5.50
2010,04,02,15,02,5.50
2010,04,02,15,03,5.40
2010,04,02,15,04,5.40
2010,04,02,15,05,5.40
2010,04,02,15,06,5.30
2010,04,02,15,07,5.30
2010,04,02,15,08,5.30
2010,04,02,15,09,5.30
2010,04,02,15,10,5.20
2010,04,02,15,11,5.20
2010,04,02,15,12,5.10
2010,04,02,15,13,5.10
2010,04,02,15,14,5.10
2010,04,02,15,15,5.00
2010,04,02,15,16,5.00
2010,04,02,15,17,5.00
2010,04,02,15,18,5.00
2010,04,02,15,19,4.90
2010,04,02,15,20,4.90
2010,04,02,15,21,4.90
2010,04,02,15,22,4.90
2010,04,02,15,23,4.90
2010,04,02,15,24,4.80
2010,04,02,15,25,4.80
2010,04,02,15,26,4.80
2010,04,02,15,27,4.80
2010,04,02,15,28,4.80
2010,04,02,15,29,4.80
2010,04,02,15,30,4.80
2010,04,02,15,31,4.80
2010,04,02,15,32,4.80
2010,04,02,15,33,4.80
2010,04,02,15,34,4.80
2010,04,02,15,35,4.80
2010,04,02,15,36,4.80
2010,04,02,15,37,4.80
2010,04,02,15,38,4.80
2010,04,02,15,39,4.80
2010,04,02,15,40,4.80
2010,04,02,15,41,4.70
2010,04,02,15,42,4.70
2010,04,02,15,43,4.70
2010,04,02,15,44,4.70
2010,04,02,15,45,4.70
2010,04,02,15,46,4.70
2010,04,02,15,47,4.70
2010,04,02,15,48,4.70
2010,04,02,15,49,4.70
2010,04,02,15,50,4.70
2010,04,02,15,51,4.80
2010,04,02,15,52,4.80
2010,04,02,15,53,4.80
2010,04,02,15,54,4.90
2010,04,02,15,55,4.90
2010,04,02,15,56,4.90
2010,04,02,15,57,5.00
2010,04,02,15,58,5.00
2010,04,02,15,59,5.00
2010,04,02,16,00,5.10
2010,04,02,16,01,5.10
2010,04,02,16,02,5.10
2010,04,02,16,03,5.20
2010,04,02,16,04,5.20
2010,04,02,16,05,5.20
2010,04,02,16,06,5.30
2010,04,02,16,07,5.30
2010,04,02,16,08,5.30
2010,04,02,16,09,5.40
2010,04,02,16,10,5.40
2010,04,02,16,11,5.40
2010,04,02,16,12,5.40
2010,04,02,16,13,5.40
2010,04,02,16,14,5.40
2010,04,02,16,15,5.50
2010,04,02,16,16,5.50
2010,04,02,16,17,5.50
2010,04,02,16,18,5.50
2010,04,02,16,19,5.60
2010,04,02,16,20,5.60
2010,04,02,16,21,5.60
2010,04,02,16,22,5.60
2010,04,02,16,23,5.60
2010,04,02,16,24,5.60
2010,04,02,16,25,5.60
2010,04,02,16,26,5.60
2010,04,02,16,27,5.60
2010,04,02,16,28,5.60
2010,04,02,16,29,5.60
2010,04,02,16,30,5.60
2010,04,02,16,31,5.60
2010,04,02,16,32,5.60
2010,04,02,16,33,5.50
2010,04,02,16,34,5.50
2010,04,02,16,35,5.50
2010,04,02,16,36,5.50
2010,04,02,16,37,5.50
2010,04,02,16,38,5.50
2010,04,02,16,39,5.40
2010,04,02,16,40,5.40
2010,04,02,16,41,5.40
2010,04,02,16,42,5.40
2010,04,02,16,43,5.40
2010,04,02,16,44,5.40
2010,04,02,16,45,5.40
2010,04,02,16,46,5.40
2010,04,02,16,47,5.40
2010,04,02,16,48,5.40
2010,04,02,16,49,5.40
2010,04,02,16,50,5.40
2010,04,02,16,51,5.40
2010,04,02,16,52,5.40
2010,04,02,16,53,5.40
2010,04,02,16,54,5.30
2010,04,02,16,55,5.30
2010,04,02,16,56,5.30
2010,04,02,16,57,5.30
2010,04,02,16,58,5.30
2010,04,02,16,59,5.30
2010,04,02,17,00,5.30
2010,04,02,17,01,5.30
2010,04,02,17,02,5.30
2010,04,02,17,03,5.30
2010,04,02,17,04,5.30
2010,04,02,17,05,5.30
2010,04,02,17,06,5.30
2010,04,02,17,07,5.30
2010,04,02,17,08,5.30
2010,04,02,17,09,5.30
2010,04,02,17,10,5.30
2010,04,02,17,11,5.30
2010,04,02,18,39,5.00
2010,04,02,18,40,5.00
2010,04,02,18,41,5.00
2010,04,02,18,42,5.00
2010,04,02,18,43,5.00
2010,04,02,18,44,5.00
2010,04,02,18,45,5.00
2010,04,02,18,46,5.00
2010,04,02,18,47,5.00
2010,04,02,18,48,4.90
2010,04,02,18,49,4.90
2010,04,02,18,50,4.90
2010,04,02,18,51,4.80
2010,04,02,18,52,4.80
2010,04,02,18,53,4.70
2010,04,02,18,54,4.70
2010,04,02,18,55,4.60
2010,04,02,18,56,4.60
2010,04,02,18,57,4.50
2010,04,02,18,58,4.50
2010,04,02,18,59,4.40
2010,04,02,19,00,4.40
2010,04,02,19,01,4.40
2010,04,02,19,02,4.30
2010,04,02,19,03,4.30
2010,04,02,19,04,4.30
2010,04,02,19,05,4.30
2010,04,02,19,06,4.30
2010,04,02,19,07,4.20
2010,04,02,19,08,4.20
2010,04,02,19,09,4.20
2010,04,02,19,10,4.20
2010,04,02,19,11,4.10
2010,04,02,19,12,4.10
2010,04,02,19,13,4.10
2010,04,02,19,14,4.10
2010,04,02,19,15,4.00
2010,04,02,19,16,4.00
2010,04,02,19,17,4.00
2010,04,02,19,18,4.00
2010,04,02,19,19,4.00
2010,04,02,19,20,4.00
2010,04,02,19,21,3.90
2010,04,02,19,22,3.90
2010,04,02,19,23,3.90
2010,04,02,19,24,3.90
2010,04,02,19,25,3.90
2010,04,02,19,26,3.90
2010,04,02,19,27,3.90
2010,04,02,19,28,3.90
2010,04,02,19,29,3.90
2010,04,02,19,30,3.90
2010,04,02,19,31,3.90
2010,04,02,19,32,3.90
2010,04,02,19,33,3.90
2010,04,02,19,34,3.90
2010,04,02,19,35,3.90
2010,04,02,19,36,3.90
2010,04,02,19,37,3.90
2010,04,02,19,38,3.90
2010,04,02,19,39,3.90
2010,04,02,19,40,3.90
2010,04,02,19,41,3.90
2010,04,02,19,42,3.90
2010,04,02,19,43,4.00
2010,04,02,19,44,4.00
2010,04,02,19,45,4.00
2010,04,02,19,46,4.00
2010,04,02,19,47,4.00
2010,04,02,19,48,4.00
2010,04,02,19,49,4.00
2010,04,02,19,50,4.10
2010,04,02,19,51,4.10
2010,04,02,19,52,4.10
2010,04,02,19,53,4.10
2010,04,02,19,54,4.10
2010,04,02,19,55,4.10
2010,04,02,19,56,4.10
2010,04,02,19,57,4.10
2010,04,02,19,58,4.10
2010,04,02,19,59,4.10
2010,04,02,20,00,4.10
2010,04,02,20,01,4.10
2010,04,02,20,02,4.10
2010,04,02,20,03,4.10
2010,04,02,20,04,4.10
2010,04,02,20,05,4.10
2010,04,02,20,06,4.10
2010,04,02,20,07,4.20
2010,04,02,20,08,4.20
2010,04,02,20,09,4.20
2010,04,02,20,10,4.20
2010,04,02,20,11,4.20
2010,04,02,20,12,4.30
2010,04,02,20,13,4.30
2010,04,02,20,14,4.30
2010,04,02,20,15,4.30
2010,04,02,20,16,4.30
2010,04,02,20,17,4.40
2010,04,02,20,18,4.40
2010,04,02,20,19,4.40
2010,04,02,20,20,4.40
2010,04,02,20,21,4.40
2010,04,02,20,22,4.40
2010,04,02,20,23,4.40
2010,04,02,20,24,4.40
2010,04,02,20,25,4.40
2010,04,02,20,26,4.40
2010,04,02,20,27,4.40
2010,04,02,20,28,4.40
2010,04,02,20,29,4.30
2010,04,02,20,30,4.30
2010,04,02,20,31,4.30
2010,04,02,20,32,4.30
2010,04,02,20,33,4.30
2010,04,02,20,34,4.30
2010,04,02,20,35,4.40
2010,04,02,20,36,4.40
2010,04,02,20,37,4.40
2010,04,02,20,38,4.40
2010,04,02,20,39,4.40
2010,04,02,20,40,4.40
2010,04,02,20,41,4.40
2010,04,02,20,42,4.40
2010,04,02,20,43,4.30
2010,04,02,20,44,4.30
2010,04,02,20,45,4.30
2010,04,02,20,46,4.30
2010,04,02,20,47,4.30
2010,04,02,20,48,4.30
2010,04,02,20,49,4.30
2010,04,02,20,50,4.30
2010,04,02,20,51,4.40
2010,04,02,20,52,4.40
2010,04,02,20,53,4.40
2010,04,02,20,54,4.40
2010,04,02,20,55,4.40
2010,04,02,20,56,4.40
2010,04,02,20,57,4.40
2010,04,02,20,58,4.40
2010,04,02,20,59,4.40
2010,04,02,21,00,4.40
2010,04,02,21,01,4.40
2010,04,02,21,02,4.50
2010,04,02,21,03,4.50
2010,04,02,21,04,4.60
2010,04,02,21,05,4.60
2010,04,02,21,06,4.60
2010,04,02,21,07,4.60
2010,04,02,21,08,4.60
2010,04,02,21,09,4.60
2010,04,02,21,10,4.60
2010,04,02,21,11,4.60
2010,04,02,21,12,4.70
2010,04,02,21,13,4.70
2010,04,02,21,14,4.70
2010,04,02,21,15,4.70
2010,04,02,21,16,4.70
2010,04,02,21,17,4.80
2010,04,02,21,18,4.80
2010,04,02,21,19,4.80
2010,04,02,21,20,4.80
2010,04,02,21,21,4.80
2010,04,02,21,22,4.80
2010,04,02,21,23,4.80
2010,04,02,21,24,4.80
2010,04,02,21,25,4.80
2010,04,02,21,26,4.80
2010,04,02,21,27,4.80
2010,04,02,21,28,4.80
2010,04,02,21,29,4.70
2010,04,02,21,30,4.70
2010,04,02,21,31,4.70
2010,04,02,21,32,4.70
2010,04,02,21,33,4.70
2010,04,02,21,34,4.70
2010,04,02,21,35,4.70
2010,04,02,21,36,4.70
2010,04,02,21,37,4.60
2010,04,02,21,38,4.60
2010,04,02,21,39,4.60
2010,04,02,21,40,4.60
2010,04,02,21,41,4.60
2010,04,02,21,42,4.60
2010,04,02,21,43,4.60
2010,04,02,21,44,4.60
2010,04,02,21,45,4.50
2010,04,02,21,46,4.50
2010,04,02,21,47,4.50
2010,04,02,21,48,4.50
2010,04,02,21,49,4.50
2010,04,02,21,50,4.50
2010,04,02,21,51,4.40
2010,04,02,21,52,4.40
2010,04,02,21,53,4.50
2010,04,02,21,54,4.50
2010,04,02,21,55,4.60
2010,04,02,21,56,4.60
2010,04,02,21,57,4.60
2010,04,02,21,58,4.60
2010,04,02,21,59,4.70
2010,04,02,22,00,4.70
2010,04,02,22,01,4.70
2010,04,02,22,02,4.70
2010,04,02,22,03,4.70
2010,04,02,22,04,4.70
2010,04,02,22,05,4.70
2010,04,02,22,06,4.70
2010,04,02,22,07,4.70
2010,04,02,22,08,4.70
2010,04,02,22,09,4.70
2010,04,02,22,10,4.70
2010,04,02,22,11,4.70
2010,04,02,22,12,4.70
2010,04,02,22,13,4.70
2010,04,02,22,14,4.70
2010,04,02,22,15,4.70
2010,04,02,22,16,4.70
2010,04,02,22,17,4.70
2010,04,02,22,18,4.80
2010,04,02,22,19,4.80
2010,04,02,22,20,4.80
2010,04,02,22,21,4.80
2010,04,02,22,22,4.80
2010,04,02,22,23,4.80
2010,04,02,22,24,4.80
2010,04,02,22,25,4.80
2010,04,02,22,26,4.80
2010,04,02,22,27,4.80
2010,04,02,22,28,4.70
2010,04,02,22,29,4.70
2010,04,02,22,30,4.70
2010,04,02,22,31,4.70
2010,04,02,22,32,4.70
2010,04,02,22,33,4.70
2010,04,02,22,34,4.70
2010,04,02,22,35,4.60
2010,04,02,22,36,4.70
2010,04,02,22,37,4.60
2010,04,02,22,38,4.60
2010,04,02,22,39,4.60
2010,04,02,22,40,4.60
2010,04,02,22,41,4.70
2010,04,02,22,42,4.70
2010,04,02,22,43,4.70
2010,04,02,22,44,4.70
2010,04,02,22,45,4.70
2010,04,02,22,46,4.80
2010,04,02,22,47,4.80
2010,04,02,22,48,4.80
2010,04,02,22,49,4.80
2010,04,02,22,50,4.80
2010,04,02,22,51,4.80
2010,04,02,22,52,4.80
2010,04,02,22,53,4.80
2010,04,02,22,54,4.80
2010,04,02,22,55,4.80
2010,04,02,22,56,4.80
2010,04,02,22,57,4.70
2010,04,02,22,58,4.70
2010,04,02,22,59,4.70
2010,04,02,23,00,4.70
2010,04,02,23,01,4.70
2010,04,02,23,02,4.70
2010,04,02,23,03,4.70
2010,04,02,23,04,4.60
2010,04,02,23,05,4.60
2010,04,02,23,06,4.60
2010,04,02,23,07,4.60
2010,04,02,23,08,4.60
2010,04,02,23,09,4.60
2010,04,02,23,10,4.60
2010,04,02,23,11,4.60
2010,04,02,23,12,4.60
2010,04,02,23,13,4.60
2010,04,02,23,14,4.60
2010,04,02,23,15,4.60
2010,04,02,23,16,4.50
2010,04,02,23,17,4.50
2010,04,02,23,18,4.50
2010,04,02,23,19,4.40
2010,04,02,23,20,4.40
2010,04,02,23,21,4.40
2010,04,02,23,22,4.40
2010,04,02,23,23,4.30
2010,04,02,23,24,4.30
2010,04,02,23,25,4.30
2010,04,02,23,26,4.30
2010,04,02,23,27,4.30
2010,04,02,23,28,4.30
2010,04,02,23,29,4.30
2010,04,02,23,30,4.40
2010,04,02,23,31,4.40
2010,04,02,23,32,4.50
2010,04,02,23,33,4.50
2010,04,02,23,34,4.50
2010,04,02,23,35,4.50
2010,04,02,23,36,4.40
2010,04,02,23,37,4.40
2010,04,02,23,38,4.40
2010,04,02,23,39,4.50
2010,04,02,23,40,4.50
2010,04,02,23,41,4.50
2010,04,02,23,42,4.50
2010,04,02,23,43,4.50
2010,04,02,23,44,4.40
2010,04,02,23,45,4.40
2010,04,02,23,46,4.40
2010,04,02,23,47,4.40
2010,04,02,23,48,4.40
2010,04,02,23,49,4.40
2010,04,02,23,50,4.40
2010,04,02,23,51,4.40
2010,04,02,23,52,4.40
2010,04,02,23,53,4.40
2010,04,02,23,54,4.50
2010,04,02,23,55,4.40
2010,04,02,23,56,4.40
2010,04,02,23,57,4.40
2010,04,02,23,58,4.40
2010,04,02,23,59,4.40
